Lake Powell Weather Center

Moon Phase Calendar



Lake Powell Water Level
Online Cameras

 


      

Current Conditions in Clay Hills Crossing
1/16/2022 2:31:38 PM

45°F
Feels Like 45
Clouds
Humidity
33%
Pressure
30.18"
Wind
1.5 mph (ENE)
Dew Point
19°F
UV Index
1/10 (Low)
Visibility
6 mi

Hourly Forecast

Date & Time Sun, Jan 16
2:00 PM
Sun, Jan 16
3:00 PM
Sun, Jan 16
4:00 PM
Sun, Jan 16
5:00 PM
Sun, Jan 16
6:00 PM
Sun, Jan 16
7:00 PM
Sun, Jan 16
8:00 PM
Sun, Jan 16
9:00 PM
Sun, Jan 16
10:00 PM
Sun, Jan 16
11:00 PM
Mon, Jan 17
12:00 AM
Mon, Jan 17
1:00 AM
Mon, Jan 17
2:00 AM
Mon, Jan 17
3:00 AM
Mon, Jan 17
4:00 AM
Mon, Jan 17
5:00 AM
Mon, Jan 17
6:00 AM
Mon, Jan 17
7:00 AM
Mon, Jan 17
8:00 AM
Mon, Jan 17
9:00 AM
Mon, Jan 17
10:00 AM
Mon, Jan 17
11:00 AM
Mon, Jan 17
12:00 PM
Mon, Jan 17
1:00 PM
Mon, Jan 17
2:00 PM
Mon, Jan 17
3:00 PM
Mon, Jan 17
4:00 PM
Mon, Jan 17
5:00 PM
Mon, Jan 17
6:00 PM
Mon, Jan 17
7:00 PM
Mon, Jan 17
8:00 PM
Mon, Jan 17
9:00 PM
Mon, Jan 17
10:00 PM
Mon, Jan 17
11:00 PM
Tue, Jan 18
12:00 AM
Tue, Jan 18
1:00 AM
Tue, Jan 18
2:00 AM
Tue, Jan 18
3:00 AM
Tue, Jan 18
4:00 AM
Tue, Jan 18
5:00 AM
Tue, Jan 18
6:00 AM
Tue, Jan 18
7:00 AM
Tue, Jan 18
8:00 AM
Tue, Jan 18
9:00 AM
Tue, Jan 18
10:00 AM
Tue, Jan 18
11:00 AM
Tue, Jan 18
12:00 PM
Tue, Jan 18
1:00 PM
Condition
Clouds

Clouds

Clouds

Clouds

Clouds

Clouds

Clouds

Clouds

Clouds

Clouds

Clouds

Clouds

Clouds

Clouds

Clouds

Clouds

Clouds

Clouds

Clouds

Clouds

Clouds

Clouds

Clouds

Clouds

Clouds

Clouds

Clouds

Clouds

Clouds

Clouds

Clouds

Clouds

Clouds

Clouds

Clouds

Clouds

Clouds

Clouds

Clouds

Clouds

Clouds

Clouds

Clouds

Clouds

Clouds

Clouds

Clouds

Clouds
Temperature 45°F45°F45°F44°F41°F40°F38°F37°F37°F36°F35°F35°F34°F34°F33°F33°F33°F32°F32°F37°F40°F41°F43°F44°F45°F45°F45°F42°F41°F41°F40°F40°F40°F39°F38°F38°F37°F36°F36°F36°F35°F35°F36°F40°F43°F44°F45°F45°F
Feels Like 45°F45°F45°F44°F41°F40°F38°F37°F37°F36°F35°F35°F34°F34°F33°F33°F33°F32°F32°F37°F40°F41°F43°F44°F45°F45°F45°F42°F41°F41°F40°F40°F40°F39°F38°F38°F37°F36°F36°F36°F35°F35°F36°F40°F43°F44°F45°F45°F
Cloudiness 90%90%90%86%65%77%83%87%90%91%100%99%97%98%96%96%74%46%35%29%32%39%83%88%92%94%95%96%100%100%100%100%100%100%100%100%100%96%83%81%53%67%77%83%86%89%100%100%
Visibility 6 mi6 mi6 mi6 mi6 mi6 mi6 mi6 mi6 mi6 mi6 mi6 mi6 mi6 mi6 mi6 mi6 mi6 mi6 mi6 mi6 mi6 mi6 mi6 mi6 mi6 mi6 mi6 mi6 mi6 mi6 mi6 mi6 mi6 mi6 mi6 mi6 mi6 mi6 mi6 mi6 mi6 mi6 mi6 mi6 mi6 mi6 mi6 mi
Precipitation 0%0%0%0%0%0%0%0%0%0%0%0%0%0%0%0%0%0%0%0%0%0%0%0%0%0%0%0%0%0%0%0%0%0%0%0%0%0%0%0%0%0%0%0%0%0%0%0%
Humidity 34%33%33%36%40%42%44%44%45%45%46%49%48%48%49%51%53%54%51%44%38%35%33%31%30%30%31%37%37%38%38%37%37%38%39%39%39%40%41%41%41%41%40%36%31%30%29%29%
Dew Point 20°F19°F19°F20°F20°F20°F17°F17°F17°F16°F16°F17°F16°F16°F16°F16°F16°F16°F16°F16°F15°F15°F15°F15°F15°F15°F15°F17°F16°F16°F16°F15°F15°F15°F15°F14°F14°F14°F13°F13°F13°F13°F14°F15°F14°F14°F14°F15°F
Pressure 30.18"30.18"30.18"30.18"30.18"30.18"30.18"30.18"30.21"30.21"30.21"30.18"30.18"30.18"30.18"30.18"30.18"30.18"30.21"30.21"30.18"30.18"30.15"30.09"30.06"30.03"30.03"30.03"30.03"30.03"30.03"30.03"30.03"30.03"30.03"30"30"30"30"30"30"30.03"30.03"30.03"30.03"30.03"30"29.97"
Wind Speed 1.2 mph1.5 mph0.9 mph1.5 mph0.8 mph0.3 mph1.1 mph1.3 mph1.2 mph1.7 mph1.6 mph1.7 mph2.1 mph1 mph1.7 mph2.4 mph1.5 mph1.3 mph0.7 mph1.2 mph1 mph1.4 mph1 mph0.9 mph1.3 mph1.7 mph1.7 mph0.5 mph0.5 mph0.3 mph0.9 mph0.7 mph0.8 mph0.3 mph0.2 mph0.7 mph1.2 mph1 mph0.5 mph0.3 mph0.4 mph0.8 mph1.4 mph1.8 mph1.1 mph0.5 mph0.4 mph1.3 mph
Wind
Direction
78°
ENE
71°
ENE
134°
SE
176°
S
174°
S
80°
E
32°
NNE
21°
NNE

N
16°
NNE
20°
NNE
35°
NE
46°
NE
34°
NE
29°
NNE
41°
NE
41°
NE
28°
NNE
24°
NNE
335°
NNW
38°
NE
63°
ENE
108°
ESE
153°
SSE
161°
SSE
157°
SSE
170°
S
100°
E
80°
E
360°
N
341°
NNW
321°
NW
307°
NW
271°
W
207°
SSW
192°
SSW
192°
SSW
165°
SSE
145°
SE
266°
W
278°
W
345°
NNW
338°
NNW
340°
NNW
350°
N
345°
NNW
251°
WSW
241°
WSW

Daily Forecast

Date High Low Precip. Humidity
Today
Jan 16

Clouds
45 °F
32 °F
0%
36%
Monday
Jan 17

Clouds
45 °F
32 °F
0%
33%
Tuesday
Jan 18

Clouds
46 °F
36 °F
0%
30%
Wednesday
Jan 19

Clouds
47 °F
35 °F
0%
42%
Thursday
Jan 20

Clear
48 °F
35 °F
0%
42%
Friday
Jan 21

Clear
50 °F
36 °F
0%
37%
Saturday
Jan 22

Clear
49 °F
34 °F
0%
34%
Sunday
Jan 23

Clear
47 °F
34 °F
0%
32%
Monday
Jan 24

Clouds
50 °F
36 °F
0%
30%
Tuesday
Jan 25

Clear
50 °F
35 °F
0%
31%
Wednesday
Jan 26

Clear
52 °F
36 °F
0%
30%
Thursday
Jan 27

Clear
52 °F
37 °F
0%
27%
Friday
Jan 28

Clouds
52 °F
40 °F
0%
26%
Saturday
Jan 29

Clouds
54 °F
42 °F
0%
27%
Sunday
Jan 30

Clear
53 °F
39 °F
0%
32%
Monday
Jan 31

Clouds
57 °F
40 °F
0%
32%

Temperature 8-14 Day Outlook



Precipitation 8-14 Day Outlook




Quick Links
Lake Powell News
Lake Powell Photos
Lake Powell Videos




About Us
Contact Us
Site Map
Search Site
Advertise With Us
   
Powell.USLakes.info
THE LAKE POWELL WEBSITE

Copyright 2022, Lakes Online
Privacy    |    Legal